Overview Statistics Trail Chart Weather Telemetry Raw packets
 

This is the latest recevied weather packets stored in our database for station/object IU3OVK-13. If no packets are shown the sender has not sent any weather packets the latest 10 day(s).

<< 37 38 39 40 41 42 43 >>
Time Temp. Humidity Pressure Rain* Wind** Luminosity Snow
1787858889 25° C 99% 1009 hPa - - - -
1787858269 26.11° C 99% 1009.6 hPa - - - -
1787857649 26.11° C 99% 1009.5 hPa - - - -
1787857029 26.11° C 99% 1009.6 hPa - - - -
1787856408 26.67° C 99% 1009.6 hPa - - - -
1787855788 26.67° C 99% 1009.7 hPa - - - -
1787855168 26.67° C 99% 1009.7 hPa - - - -
1787854548 26.67° C 99% 1010.2 hPa - - - -
1787853928 27.22° C 99% 1010.3 hPa - - - -
1787853307 27.22° C 99% 1010.3 hPa - - - -
1787852687 28.33° C 99% 1010.5 hPa - - - -
1787852067 28.33° C 99% 1010.4 hPa - - - -
1787851447 28.33° C 99% 1010.4 hPa - - - -
1787850827 28.89° C 99% 1010.3 hPa - - - -
1787850206 29.44° C 99% 1010.3 hPa - - - -
1787849586 29.44° C 99% 1010.4 hPa - - - -
1787848966 29.44° C 99% 1010.4 hPa - - - -
1787848346 29.44° C 99% 1010.2 hPa - - - -
1787847729 30° C 99% 1010.3 hPa - - - -
1787847105 29.44° C 99% 1010.1 hPa - - - -
1787846485 30° C 99% 1010.2 hPa - - - -
1787845865 30° C 99% 1010.1 hPa - - - -
1787845245 29.44° C 99% 1010.4 hPa - - - -
1787844625 30° C 99% 1010.1 hPa - - - -
1787843384 30° C 99% 1010.4 hPa - - - -

* Rain since midnight (hover to see other rain measurements)
** Current wind speed in m/s (hover to see current wind gust speed)